Change the Weather History Date:

Saturday, April 26, 2014

  Actual Average Record
Temperature  
Mean Temperature 49 °F 53 °F  
Max Temperature 59 °F 63 °F 86 °F (1915)
Min Temperature 39 °F 43 °F 27 °F (1926)
Degree Days  
Heating Degree Days 16 12  
Month to date heating degree days 429 434  
Since 1 July heating degree days 6798 5849  
Cooling Degree Days 0 0  
Month to date cooling degree days 0 0  
Year to date cooling degree days 0 0  
Moisture  
Dew Point 35 °F    
Average Humidity 64    
Maximum Humidity 89    
Minimum Humidity 38    
Precipitation  
Precipitation 0.00 in 0.09 in 1.10 in (1998)
Month to date precipitation 1.46 2.50  
Year to date precipitation 8.69 8.76  
Snow  
Snow 0.00 in 0.10 in 0.10 in (1932)
Month to date snowfall 3.2 1.7  
Since 1 July snowfall 94.9 42.5  
Snow Depth 0.00 in    
Sea Level Pressure  
Sea Level Pressure 29.93 in    
Wind  
Wind Speed 11 mph (NW)    
Max Wind Speed 21 mph    
Max Gust Speed 25 mph    
Visibility 9 miles    
Events      
T = Trace of Precipitation, MM = Missing Value Source: NWS Daily Summary

Daily Weather History Graph

Daily Weather History Graph

Search for Another Location

Airport or City:

Trip Planner

Search our weather history database for the weather conditions in past years. The results will help you decide how hot, cold, wet, or windy it might be!

Date:

Astronomy

Apr. 26, 2014 Rise Set
Actual Time 6:35 AM EDT 8:27 PM EDT
Civil Twilight 6:05 AM EDT 8:57 PM EDT
Nautical Twilight 5:29 AM EDT 9:34 PM EDT
Astronomical Twilight 4:49 AM EDT 10:13 PM EDT
Moon 5:02 AM EDT (4/26) 5:51 PM EDT (4/26)
Length of Visible Light 14h 51m
Length of Day
13h 51m
Waning Crescent, 8% of the Moon is Illuminated
Apr 26
Waning Crescent
Apr 29
New
May 6
First Quarter
May 14
Full
May 21
Last Quarter

Hourly Weather History & Observations

Time (EDT) Temp. Windchill Dew Point Humidity Pressure Visibility Wind Dir Wind Speed Gust Speed Precip Events Conditions
12:53 AM 44.1 °F 41.5 °F 41.0 °F 89% 29.83 in 7.0 mi SSE 4.6 mph - N/A   Partly Cloudy
1:53 AM 43.0 °F 39.5 °F 39.0 °F 86% 29.82 in 7.0 mi South 5.8 mph - N/A   Partly Cloudy
2:53 AM 43.0 °F 39.5 °F 37.0 °F 80% 29.80 in 7.0 mi South 5.8 mph - N/A   Scattered Clouds
3:53 AM 42.1 °F 39.2 °F 37.9 °F 85% 29.79 in 7.0 mi South 4.6 mph - N/A   Scattered Clouds
4:53 AM 44.1 °F 42.5 °F 37.9 °F 79% 29.79 in 7.0 mi SW 3.5 mph - N/A   Scattered Clouds
5:53 AM 43.0 °F 40.3 °F 37.9 °F 82% 29.80 in 7.0 mi West 4.6 mph - N/A   Scattered Clouds
6:53 AM 43.0 °F 39.5 °F 37.0 °F 80% 29.82 in 7.0 mi West 5.8 mph - N/A   Scattered Clouds
7:53 AM 46.9 °F - 39.0 °F 74% 29.85 in 8.0 mi West 6.9 mph - N/A   Scattered Clouds
8:53 AM 50.0 °F - 36.0 °F 59% 29.86 in 10.0 mi West 12.7 mph - N/A   Scattered Clouds
9:53 AM 51.1 °F - 35.1 °F 54% 29.88 in 10.0 mi WNW 12.7 mph - N/A   Partly Cloudy
10:53 AM 52.0 °F - 34.0 °F 50% 29.89 in 10.0 mi NW 13.8 mph 23.0 mph N/A   Partly Cloudy
11:53 AM 54.0 °F - 33.1 °F 45% 29.91 in 10.0 mi NW 12.7 mph 19.6 mph N/A   Partly Cloudy
12:53 PM 55.0 °F - 30.9 °F 40% 29.92 in 10.0 mi NW 13.8 mph 21.9 mph N/A   Partly Cloudy
1:53 PM 55.9 °F - 32.0 °F 40% 29.92 in 10.0 mi WNW 12.7 mph 18.4 mph N/A   Partly Cloudy
2:53 PM 57.0 °F - 33.1 °F 40% 29.96 in 10.0 mi NW 17.3 mph 20.7 mph N/A   Scattered Clouds
3:53 PM 57.9 °F - 33.1 °F 39% 29.98 in 10.0 mi NW 15.0 mph 19.6 mph N/A   Scattered Clouds
4:53 PM 54.0 °F - 33.1 °F 45% 29.99 in 10.0 mi North 11.5 mph 21.9 mph N/A   Scattered Clouds
5:53 PM 55.0 °F - 34.0 °F 45% 30.01 in 10.0 mi NNW 15.0 mph 18.4 mph N/A   Scattered Clouds
6:53 PM 52.0 °F - 33.1 °F 49% 30.02 in 10.0 mi North 10.4 mph - N/A   Scattered Clouds
7:53 PM 50.0 °F - 32.0 °F 50% 30.04 in 10.0 mi North 11.5 mph - N/A   Scattered Clouds
8:53 PM 46.9 °F - 30.9 °F 54% 30.07 in 10.0 mi North 11.5 mph - N/A   Scattered Clouds
9:53 PM 44.1 °F 37.7 °F 34.0 °F 68% 30.09 in 10.0 mi NNE 12.7 mph - N/A   Scattered Clouds
10:53 PM 43.0 °F 37.2 °F 32.0 °F 65% 30.12 in 10.0 mi NE 10.4 mph 19.6 mph N/A   Partly Cloudy
11:53 PM 41.0 °F 34.3 °F 32.0 °F 70% 30.12 in 10.0 mi NNE 11.5 mph - N/A   Clear